Weather History for Hillsdale, MI

Change the Weather History Date:

Sunday, January 13, 2013

  Actual Average Record
Temperature  
Mean Temperature 37 °F -  
Max Temperature 43 °F 29 °F 60 °F (1950)
Min Temperature 27 °F 13 °F -13 °F (1977)
Degree Days  
Heating Degree Days 28    
Moisture  
Dew Point 35 °F    
Average Humidity 96    
Maximum Humidity 98    
Minimum Humidity 84    
Precipitation  
Precipitation 0.00 in - - ()
Sea Level Pressure  
Sea Level Pressure 29.87 in    
Wind  
Wind Speed 9 mph (NW)    
Max Wind Speed 22 mph    
Max Gust Speed 30 mph    
Visibility 5 miles    
Events Rain , Snow    
Averages and records for this station are not official NWS values.
T = Trace of Precipitation, MM = Missing Value Source: NWS Daily Summary

Daily Weather History Graph

Daily Weather History Graph

Search for Another Location

Airport:

Trip Planner

Search our weather history database for the weather conditions in past years. The results will help you decide how hot, cold, wet, or windy it might be!

Date:

Astronomy

Jan. 13, 2013 Rise Set
Actual Time 8:04 AM EST 5:30 PM EST
Civil Twilight 7:33 AM EST 6:01 PM EST
Nautical Twilight 6:58 AM EST 6:35 PM EST
Astronomical Twilight 6:25 AM EST 7:09 PM EST
Moon 8:59 AM EST (1/13) 8:10 PM EST (1/13)
Length of Visible Light 10h 27m
Length of Day
9h 25m
Waxing Crescent, 5% of the Moon is Illuminated
Jan 13
Waxing Crescent
Jan 18
First Quarter
Jan 26
Full
Feb 3
Last Quarter
Feb 10
New

Hourly Weather History & Observations

Time (EST) Temp. Windchill Dew Point Humidity Pressure Visibility Wind Dir Wind Speed Gust Speed Precip Events Conditions
12:15 AM 46.8 °F - 45.1 °F 94% 29.81 in 7.0 mi NNE 6.9 mph - N/A Rain Rain
12:34 AM 45.9 °F 41.2 °F 44.2 °F 94% 29.80 in 4.0 mi North 9.2 mph - N/A Rain Rain
12:55 AM 44.6 °F 38.1 °F 42.8 °F 93% 29.78 in 7.0 mi NNE 13.8 mph - N/A Rain Rain
1:15 AM 42.3 °F 35.9 °F 39.9 °F 91% 29.78 in 7.0 mi NNE 11.5 mph 16.1 mph N/A Rain Rain
1:35 AM 41.7 °F 35.6 °F 39.9 °F 93% 29.78 in 10.0 mi NNE 10.4 mph 17.3 mph N/A Rain Rain
1:54 AM 41.4 °F 34.7 °F 39.6 °F 93% 29.79 in 10.0 mi North 11.5 mph 16.1 mph N/A Rain Rain
2:14 AM 40.5 °F 34.6 °F 38.8 °F 94% 29.79 in 3.0 mi NNE 9.2 mph - N/A   Overcast
2:34 AM 40.3 °F 34.4 °F 38.8 °F 95% 29.80 in 5.0 mi North 9.2 mph 17.3 mph N/A Rain Rain
2:55 AM 39.7 °F 33.7 °F 38.7 °F 96% 29.78 in 5.0 mi NNE 9.2 mph 16.1 mph N/A Rain Rain
3:15 AM 39.6 °F 33.5 °F 38.3 °F 95% 29.77 in 3.0 mi NNE 9.2 mph 18.4 mph N/A Rain Rain
3:35 AM 39.0 °F 31.8 °F 37.9 °F 96% 29.76 in 4.0 mi NNE 11.5 mph 17.3 mph N/A   Overcast
3:55 AM 38.8 °F 31.6 °F 37.8 °F 96% 29.74 in 4.0 mi NE 11.5 mph 16.1 mph N/A   Overcast
4:15 AM 38.8 °F 31.6 °F 37.8 °F 96% 29.77 in 7.0 mi NNW 11.5 mph 16.1 mph N/A Rain Light Rain
4:35 AM 38.1 °F 29.8 °F 37.2 °F 97% 29.77 in 5.0 mi NNW 13.8 mph 21.9 mph N/A Rain Light Rain
4:55 AM 37.8 °F 29.8 °F 36.9 °F 97% 29.75 in 10.0 mi North 12.7 mph - N/A   Light Drizzle
5:14 AM 37.8 °F 28.6 °F 36.9 °F 97% 29.79 in 10.0 mi NNW 16.1 mph 24.2 mph N/A   Overcast
5:35 AM 37.2 °F 28.3 °F 36.1 °F 96% 29.79 in 10.0 mi North 15.0 mph 18.4 mph N/A   Overcast
5:55 AM 37.2 °F 30.6 °F 35.8 °F 95% 29.78 in 10.0 mi North 9.2 mph - N/A   Overcast
6:15 AM 37.2 °F 32.6 °F 35.4 °F 93% 29.78 in 10.0 mi North 5.8 mph - N/A   Overcast
6:34 AM 37.0 °F 31.0 °F 35.2 °F 93% 29.78 in 10.0 mi NNE 8.1 mph - N/A   Overcast
6:55 AM 37.2 °F 32.6 °F 35.6 °F 94% 29.79 in 10.0 mi NNE 5.8 mph - N/A   Overcast
7:15 AM 37.2 °F 31.2 °F 35.8 °F 95% 29.81 in 10.0 mi North 8.1 mph - N/A   Overcast
7:34 AM 37.2 °F 31.9 °F 35.8 °F 95% 29.82 in 10.0 mi North 6.9 mph - N/A   Overcast
7:55 AM 37.4 °F 33.8 °F 36.0 °F 95% 29.83 in 10.0 mi North 4.6 mph - N/A   Overcast
8:14 AM 37.8 °F 34.2 °F 36.3 °F 95% 29.85 in 7.0 mi West 4.6 mph - N/A   Overcast
8:34 AM 37.2 °F - 36.1 °F 96% 29.84 in 4.0 mi Calm Calm - N/A Rain Light Rain
8:55 AM 37.4 °F - 36.3 °F 96% 29.86 in 2.0 mi Calm Calm - N/A Rain Light Rain
9:15 AM 37.6 °F - 36.7 °F 97% 29.85 in 2.0 mi Calm Calm - N/A Rain Light Rain
9:34 AM 37.8 °F 34.2 °F 36.9 °F 97% 29.86 in 2.5 mi West 4.6 mph - N/A   Overcast
9:55 AM 37.8 °F 34.2 °F 37.0 °F 97% 29.86 in 3.0 mi WNW 4.6 mph - N/A   Overcast
10:15 AM 37.8 °F 32.5 °F 37.2 °F 98% 29.88 in 3.0 mi West 6.9 mph - N/A   Overcast
10:34 AM 37.8 °F 34.2 °F 37.2 °F 98% 29.87 in 1.8 mi WNW 4.6 mph - N/A   Overcast
10:55 AM 37.8 °F 31.8 °F 37.2 °F 98% 29.89 in 1.5 mi WNW 8.1 mph - N/A   Overcast
11:15 AM 37.8 °F 32.5 °F 37.2 °F 98% 29.88 in 1.2 mi WNW 6.9 mph - N/A   Overcast
11:34 AM 37.9 °F 32.7 °F 37.4 °F 98% 29.88 in 1.2 mi NW 6.9 mph - N/A   Overcast
11:55 AM 37.8 °F 33.3 °F 37.2 °F 98% 29.83 in 1.8 mi NNW 5.8 mph - N/A   Overcast
12:15 PM 37.9 °F 31.5 °F 37.4 °F 98% 29.87 in 2.5 mi WNW 9.2 mph - N/A   Overcast
12:34 PM 38.1 °F 31.7 °F 37.4 °F 97% 29.88 in 2.5 mi WNW 9.2 mph - N/A   Overcast
12:55 PM 37.8 °F 30.2 °F 37.0 °F 97% 29.88 in 1.2 mi NW 11.5 mph - N/A Rain Light Rain
1:14 PM 37.8 °F 30.7 °F 37.2 °F 98% 29.88 in 2.0 mi WNW 10.4 mph - N/A Rain Light Rain
1:55 PM 37.8 °F 33.3 °F 37.0 °F 97% 29.82 in 10.0 mi NNW 5.8 mph - N/A   Overcast
2:14 PM 37.6 °F 34.0 °F 36.9 °F 97% 29.80 in 10.0 mi North 4.6 mph - N/A   Overcast
2:35 PM 37.2 °F 31.2 °F 36.5 °F 97% 29.83 in 10.0 mi NW 8.1 mph - N/A   Overcast
2:55 PM 37.6 °F 31.6 °F 36.7 °F 97% 29.86 in 3.0 mi NW 8.1 mph - N/A Rain Light Rain
3:14 PM 37.4 °F 28.9 °F 36.7 °F 97% 29.89 in 2.0 mi NW 13.8 mph - N/A Rain Rain
3:35 PM 37.0 °F 29.8 °F 36.3 °F 97% 29.90 in 2.0 mi NW 10.4 mph - N/A Rain Rain
3:55 PM 36.1 °F 26.5 °F 35.4 °F 97% 29.90 in 2.0 mi NW 16.1 mph - N/A Rain Light Rain
4:14 PM 35.2 °F 27.6 °F 34.3 °F 97% 29.90 in 3.0 mi NNW 10.4 mph 16.1 mph N/A Rain Light Rain
4:35 PM 34.9 °F 29.0 °F 33.8 °F 96% 29.93 in 2.0 mi WNW 6.9 mph - N/A Snow Snow
4:55 PM 34.3 °F 28.4 °F 33.4 °F 97% 29.91 in 2.5 mi NNW 6.9 mph - N/A Snow Light Snow
5:14 PM 34.2 °F 27.5 °F 33.4 °F 97% 29.91 in 3.0 mi NW 8.1 mph - N/A Snow Light Snow
5:35 PM 34.2 °F 29.0 °F 33.4 °F 97% 29.89 in 7.0 mi NNW 5.8 mph - N/A Snow Light Snow
5:54 PM 34.2 °F - 33.4 °F 97% 29.90 in 7.0 mi Calm Calm - N/A   Light Drizzle
6:15 PM 34.0 °F 28.8 °F 33.1 °F 96% 29.90 in 5.0 mi NW 5.8 mph - N/A   Overcast
6:35 PM 34.0 °F 31.0 °F 33.3 °F 97% 29.93 in 3.0 mi West 3.5 mph - N/A Snow Light Snow
6:55 PM 33.8 °F 27.7 °F 33.3 °F 98% 29.94 in 3.0 mi West 6.9 mph - N/A Snow Light Snow
7:14 PM 33.3 °F 26.4 °F 32.7 °F 98% 29.95 in 3.0 mi West 8.1 mph - N/A Snow Light Snow
7:35 PM 33.3 °F 25.7 °F 32.5 °F 97% 29.95 in 2.5 mi West 9.2 mph - N/A Snow Light Snow
7:55 PM 33.1 °F 24.4 °F 32.4 °F 97% 29.96 in 4.0 mi West 11.5 mph - N/A Snow Light Snow
8:14 PM 32.5 °F 23.7 °F 31.8 °F 97% 29.96 in 2.5 mi WNW 11.5 mph 16.1 mph N/A Snow Light Snow
8:34 PM 32.2 °F 22.3 °F 31.3 °F 96% 29.98 in 2.0 mi WNW 13.8 mph 17.3 mph N/A Snow Light Snow
8:55 PM 31.5 °F 21.8 °F 30.6 °F 96% 29.98 in 1.5 mi WNW 12.7 mph - N/A Snow Light Snow
9:15 PM 31.5 °F 21.4 °F 30.6 °F 96% 29.98 in 5.0 mi WNW 13.8 mph - N/A Snow Light Snow
9:35 PM 30.9 °F 20.2 °F 29.8 °F 96% 29.99 in 10.0 mi WNW 15.0 mph 19.6 mph N/A   Overcast
9:55 PM 30.6 °F 18.6 °F 29.1 °F 94% 29.99 in 10.0 mi WNW 18.4 mph 21.9 mph N/A   Overcast
10:15 PM 29.7 °F 16.4 °F 28.6 °F 96% 30.00 in 7.0 mi WNW 21.9 mph - N/A   Overcast
10:35 PM 29.1 °F 17.5 °F 27.7 °F 94% 30.01 in 7.0 mi WNW 16.1 mph 21.9 mph N/A   Overcast
10:54 PM 28.8 °F 17.5 °F 27.0 °F 93% 30.02 in 7.0 mi West 15.0 mph 23.0 mph N/A   Overcast
11:14 PM 28.8 °F 17.0 °F 25.5 °F 88% 30.04 in 10.0 mi West 16.1 mph 27.6 mph N/A   Overcast
11:35 PM 28.6 °F 16.8 °F 24.3 °F 84% 30.04 in 10.0 mi West 16.1 mph 26.5 mph N/A   Overcast
11:55 PM 27.9 °F 14.7 °F 23.7 °F 84% 30.04 in 10.0 mi WNW 19.6 mph 29.9 mph N/A   Overcast